MPEC 2007-V44 : 2007 VQ4

The following Minor Planet Electronic Circular may be linked-to from your own Web pages, but must not otherwise be redistributed electronically.


Read MPEC 2007-V43 Read MPEC 2007-V45


M.P.E.C. 2007-V44                                Issued 2007 Nov. 6, 12:58 UT

     The Minor Planet Electronic Circulars contain information on unusual
         minor planets and routine data on comets.  They are published
   on behalf of Commission 20 of the International Astronomical Union by the
          Minor Planet Center, Smithsonian Astrophysical Observatory,
                          Cambridge, MA 02138, U.S.A.

             Prepared using the Tamkin Foundation Computer Network

                              MPC@CFA.HARVARD.EDU
          URL http://www.cfa.harvard.edu/iau/mpc.html  ISSN 1523-6714

                                   2007 VQ4

Observations:
     K07V04Q* C2007 11 03.43707 07 21 49.09 +34 50 11.7          18.7   EV044704
     K07V04Q  C2007 11 03.44919 07 21 50.46 +34 50 26.8          18.8   EV044704
     K07V04Q  C2007 11 03.46131 07 21 51.86 +34 50 41.5          19.2   EV044704
     K07V04Q  C2007 11 03.47343 07 21 53.24 +34 50 58.0          18.9   EV044704
     K07V04Q  C2007 11 03.48557 07 21 54.61 +34 51 13.4          19.3   EV044704
     K07V04Q  C2007 11 04.43259 07 23 45.37 +35 11 22.1          18.6   EV044704
     K07V04Q  C2007 11 04.44476 07 23 46.78 +35 11 38.1          18.9   EV044704
     K07V04Q  C2007 11 04.45691 07 23 48.14 +35 11 53.7          18.7   EV044704
     K07V04Q  C2007 11 04.46936 07 23 49.54 +35 12 10.0          19.1   EV044704
     K07V04Q  C2007 11 04.48170 07 23 50.92 +35 12 25.7          19.0   EV044704
     K07V04Q  C2007 11 05.43436 07 25 42.94 +35 33 08.8          18.4   EV044704
     K07V04Q  C2007 11 05.44661 07 25 44.32 +35 33 25.4          19.1   EV044704
     K07V04Q  C2007 11 05.45885 07 25 45.72 +35 33 41.3          18.6   EV044704
     K07V04Q  C2007 11 05.47107 07 25 47.13 +35 33 57.9          18.8   EV044704
     K07V04Q  C2007 11 05.48330 07 25 48.51 +35 34 13.6          18.7   EV044704
     K07V04Q  C2007 11 06.07825 07 26 58.90 +35 47 19.9                 EV044J95
     K07V04Q  C2007 11 06.08785 07 26 59.98 +35 47 33.0                 EV044J95
     K07V04Q  C2007 11 06.09107 07 27 00.34 +35 47 37.7                 EV044J95
     K07V04Q  C2007 11 06.09431 07 27 00.71 +35 47 42.0          18.8 R EV044J95
     K07V04Q 5C2007 11 06.49270807 27 47.599+35 56 39.37         18.2 R EV044673
     K07V04Q 5C2007 11 06.49849507 27 48.282+35 56 46.70                EV044673
     K07V04Q 5C2007 11 06.50312507 27 48.800+35 56 53.41                EV044673
     K07V04Q 5C2007 11 06.50706007 27 49.255+35 56 58.77                EV044673

Observer details:
673 Table Mountain Observatory, Wrightwood.  Observer J. Young.  0.61-m f/16
    Cassegrain + CCD.
704 Lincoln Laboratory ETS, New Mexico.  Observers M. Bezpalko, D. Torres,
    R. Kracke, G. Spitz, J. Kistler.  Measurers J. Stuart, S. Scruggs.  1.0-m
    f/2.15 reflector + CCD.
J95 Great Shefford.  Observer P. Birtwhistle.  0.40-m f/6.0 Schmidt-Cassegrain
    + CCD.

Orbital elements:
2007 VQ4                                                 Earth MOID = 0.4824 AU
Epoch 2007 Oct. 27.0 TT = JDT 2454400.5                 MPC
M 328.00207              (2000.0)            P               Q
n   0.24349612     Peri.  101.31642     -0.85594206     -0.34872807
a   2.5398497      Node    59.34234     +0.08310849     -0.82152484
e   0.5077911      Incl.   26.34695     +0.51034906     -0.45109386
P   4.05           H   15.4           G   0.15           U   8
Residuals in seconds of arc
071103 704  0.1-  0.3+    071104 704  0.3-  0.0     071106 J95  0.0   0.1-
071103 704  0.1-  0.0     071104 704  0.6-  0.3-    071106 J95  0.1-  0.3+
071103 704  0.2+  0.6-    071105 704  0.3+  0.1+    071106 J95  0.2-  0.2+
071103 704  0.3+  0.5+    071105 704  0.1+  0.5+    071106 673  0.2-  0.1+
071103 704  0.2+  0.5+    071105 704  0.1+  0.2+    071106 673  0.0   0.4-
071104 704  0.1-  0.3-    071105 704  0.3+  0.6+    071106 673  0.1-  0.1+
071104 704  0.2+  0.1-    071105 704  0.1+  0.2+    071106 673  0.1-  0.1+
071104 704  0.1-  0.2-    071106 J95  0.4+  0.2-

Ephemeris:
2007 VQ4                 a,e,i = 2.54, 0.51, 26                  q = 1.2501
Date    TT    R. A. (2000) Decl.     Delta      r     Elong.  Phase     V
2007 11 06    07 26.82   +35 45.6    1.100    1.759   114.3    30.9    18.2
2007 11 16    07 47.05   +39 52.9    0.969    1.696   120.0    30.3    17.8
2007 11 26    08 08.92   +44 54.3    0.856    1.635   124.8    29.7    17.4
2007 12 06    08 33.57   +50 51.2    0.762    1.575   128.2    29.5    17.1
2007 12 16    09 02.90   +57 31.1    0.690    1.517   129.2    30.2    16.8
2007 12 26    09 40.50   +64 21.7    0.640    1.463   127.4    32.3    16.6
2008 01 05    10 32.18   +70 33.3    0.610    1.413   123.3    35.6    16.5
2008 01 15    11 43.87   +75 08.3    0.594    1.368   118.1    39.4    16.5
2008 01 25    13 10.08   +77 26.4    0.588    1.328   112.8    43.1    16.5
2008 02 04    14 24.86   +77 43.9    0.586    1.296   108.4    46.2    16.6
2008 02 14    15 08.48   +76 58.2    0.584    1.272   105.2    48.5    16.6
2008 02 24    15 21.59   +75 46.6    0.578    1.256   103.4    50.0    16.6
2008 03 05    15 11.21   +74 10.3    0.567    1.250   103.2    50.6    16.5
2008 03 15    14 45.10   +71 42.7    0.553    1.254   104.6    50.1    16.5
2008 03 25    14 13.03   +67 45.8    0.536    1.267   107.5    48.7    16.4
2008 04 04    13 43.60   +61 50.4    0.522    1.288   111.8    46.1    16.3
2008 04 14    13 21.44   +53 46.9    0.516    1.319   116.8    42.8    16.2
2008 04 24    13 07.42   +43 58.5    0.525    1.356   121.5    39.2    16.2
2008 05 04    13 00.31   +33 18.7    0.554    1.400   124.7    36.3    16.3
2008 05 14    12 58.69   +22 51.3    0.606    1.449   125.4    34.7    16.6
2008 05 24    13 01.29   +13 25.9    0.683    1.502   123.5    34.2    16.9
2008 06 03    13 07.07   +05 22.9    0.780    1.558   120.0    34.3    17.2
2008 06 13    13 15.39   -01 19.6    0.895    1.617   115.5    34.5    17.6
2008 06 23    13 25.69   -06 53.2    1.025    1.678   110.6    34.5    18.0
2008 07 03    13 37.60   -11 31.5    1.167    1.741   105.5    34.3    18.4
2008 07 13    13 50.86   -15 26.6    1.319    1.804   100.3    33.7    18.7
2008 07 23    14 05.26   -18 47.8    1.477    1.867    95.2    32.8    19.0
2008 08 02    14 20.65   -21 42.0    1.641    1.931    90.1    31.7    19.3
2008 08 12    14 36.92   -24 14.4    1.809    1.994    84.9    30.4    19.5
2008 08 22    14 53.97   -26 28.6    1.979    2.057    79.8    28.9    19.7
2008 09 01    15 11.73   -28 27.0    2.150    2.120    74.7    27.3    19.9
2008 09 11    15 30.14   -30 11.6    2.319    2.181    69.5    25.6    20.1
2008 09 21    15 49.11   -31 43.4    2.487    2.242    64.3    23.8    20.2

Timothy B. Spahr             (C) Copyright 2007 MPC           M.P.E.C. 2007-V44

Read MPEC 2007-V43 Read MPEC 2007-V45


Our Web policy. Index to the CBAT/MPC/ICQ pages.

MPC

Valid HTML 4.01!